This is the latest recevied weather packets stored in our database for station/object E70ARA-3. If no packets are shown the sender has not sent any weather packets the latest 10 day(s).
| Time | Temp. | Humidity | Pressure | Rain* | Wind** | Luminosity | Snow |
|---|---|---|---|---|---|---|---|
| 1777508868 | 10.56° C | 75% | 1033.3 hPa | - | - | - | - |
| 1777507968 | 10.56° C | 73% | 1033.3 hPa | - | - | - | - |
| 1777507068 | 11.11° C | 73% | 1033.3 hPa | - | - | - | - |
| 1777506168 | 11.67° C | 73% | 1033.3 hPa | - | - | - | - |
| 1777505268 | 11.67° C | 74% | 1033.1 hPa | - | - | - | - |
| 1777504367 | 12.22° C | 73% | 1033 hPa | - | - | - | - |
| 1777503467 | 12.78° C | 72% | 1032.9 hPa | - | - | - | - |
| 1777502567 | 13.33° C | 74% | 1032.7 hPa | - | - | - | - |
| 1777501667 | 12.78° C | 69% | 1032.7 hPa | - | - | - | - |
| 1777500767 | 13.33° C | 62% | 1032.4 hPa | - | - | - | - |
| 1777499866 | 13.89° C | 63% | 1032.4 hPa | - | - | - | - |
| 1777498966 | 13.89° C | 65% | 1032.2 hPa | - | - | - | - |
| 1777498066 | 13.89° C | 63% | 1032.2 hPa | - | - | - | - |
| 1777497166 | 13.89° C | 64% | 1032.2 hPa | - | - | - | - |
| 1777496266 | 13.89° C | 63% | 1032.2 hPa | - | - | - | - |
| 1777495614 | 13.89° C | 62% | 1032.1 hPa | - | - | - | - |
| 1777495614 | 13.89° C | 63% | 1032 hPa | - | - | - | - |
| 1777493565 | 13.89° C | 63% | 1031.9 hPa | - | - | - | - |
| 1777492665 | 13.89° C | 62% | 1031.9 hPa | - | - | - | - |
| 1777491769 | 13.89° C | 61% | 1031.7 hPa | - | - | - | - |
| 1777490869 | 14.44° C | 63% | 1031.7 hPa | - | - | - | - |
| 1777489969 | 14.44° C | 62% | 1031.6 hPa | - | - | - | - |
| 1777489068 | 14.44° C | 62% | 1031.6 hPa | - | - | - | - |
| 1777488168 | 14.44° C | 63% | 1031.4 hPa | - | - | - | - |
| 1777487268 | 14.44° C | 64% | 1031.2 hPa | - | - | - | - |
* Rain since midnight (hover to see other rain measurements)
** Current wind speed in m/s (hover to see current wind gust speed)